Location: Dalton
(34.7700°N, 84.9700°W)
Time: 23:12:29
(UTC-04:00)

Tiangong 2 - Pass Details

Date: 16 October 2017
Orbit: 388 x 391 km, 42.8° (Epoch: 20 October)

Event Time Altitude Azimuth Distance (km) Brightness Sun altitude
Exits shadow 06:13:06 20° 360° (N) 979 3.1 -20.0°
Maximum altitude 06:13:20 20° 6° (N) 974 3.2 -19.9°
Drops below altitude 10° 06:15:47 10° 56° (ENE) 1,419 4.8 -19.4°
Sets 06:18:14 0° 75° (ENE) 2,275 6.5 -18.9°
